• In Czech Republic
  • List of Countries
  • For 7 days
  • Water Temperature
  • Satellite Maps
  • Weather Map
  • Weather Widgets
  • user-avatar
    Login

    Hourly Weather Arganda del Rey

    Today, 23 September, Sunday

    Time Temperature Precipitation Wind Pressure Humidity
    00:00 +26°C° 0 mm 2 mps 712 mmHg 30%
    01:00 +26°C° 0 mm 2 mps 711 mmHg 31%
    02:00 +25°C° 0 mm 2 mps 711 mmHg 32%
    03:00 +25°C° 0 mm 2 mps 711 mmHg 33%
    04:00 +24°C° 0 mm 2 mps 711 mmHg 35%
    05:00 +24°C° 0 mm 2 mps 711 mmHg 36%
    06:00 +23°C° 0 mm 1 mps 711 mmHg 38%
    07:00 +25°C° 0 mm 1 mps 711 mmHg 35%
    08:00 +27°C° 0 mm 1 mps 712 mmHg 32%
    09:00 +29°C° 0 mm 1 mps 712 mmHg 29%
    10:00 +30°C° 0 mm 1 mps 712 mmHg 27%
    11:00 +31°C° 0 mm 1 mps 712 mmHg 24%
    12:00 +33°C° 0 mm 1 mps 712 mmHg 22%
    13:00 +33°C° 0 mm 1 mps 711 mmHg 21%
    14:00 +34°C° 0 mm 1 mps 711 mmHg 20%
    15:00 +35°C° 0 mm 2 mps 711 mmHg 20%
    16:00 +33°C° 0 mm 1 mps 710 mmHg 22%
    17:00 +32°C° 0 mm 1 mps 710 mmHg 23%
    18:00 +31°C° 0 mm 1 mps 710 mmHg 25%
    19:00 +30°C° 0 mm 1 mps 711 mmHg 26%
    20:00 +29°C° 0 mm 2 mps 711 mmHg 27%
    21:00 +29°C° 0 mm 2 mps 711 mmHg 27%
    22:00 +28°C° 0 mm 3 mps 711 mmHg 33%
    23:00 +27°C° 0 mm 4 mps 711 mmHg 39%

    Tomorrow, 24 September, Monday

    Time Temperature Precipitation Wind Pressure Humidity
    00:00 +26°C° 0 mm 5 mps 711 mmHg 45%
    01:00 +25°C° 0 mm 4 mps 711 mmHg 48%
    02:00 +23°C° 0 mm 4 mps 711 mmHg 50%
    03:00 +23°C° 0 mm 4 mps 711 mmHg 53%
    04:00 +22°C° 0 mm 4 mps 711 mmHg 54%
    05:00 +22°C° 0 mm 4 mps 711 mmHg 56%
    06:00 +21°C° 0 mm 4 mps 711 mmHg 57%
    07:00 +23°C° 0 mm 4 mps 711 mmHg 54%
    08:00 +25°C° 0 mm 5 mps 712 mmHg 50%
    09:00 +26°C° 0 mm 5 mps 712 mmHg 47%
    10:00 +28°C° 0 mm 4 mps 712 mmHg 42%
    11:00 +29°C° 0 mm 4 mps 712 mmHg 37%
    12:00 +31°C° 0 mm 3 mps 712 mmHg 32%
    13:00 +33°C° 0 mm 3 mps 711 mmHg 30%
    14:00 +32°C° 0 mm 2 mps 711 mmHg 28%
    15:00 +34°C° 0 mm 2 mps 710 mmHg 26%
    16:00 +32°C° 0 mm 2 mps 710 mmHg 28%
    17:00 +31°C° 0 mm 2 mps 710 mmHg 30%
    18:00 +30°C° 0 mm 2 mps 710 mmHg 32%
    19:00 +29°C° 0 mm 2 mps 710 mmHg 34%
    20:00 +28°C° 0 mm 3 mps 711 mmHg 36%
    21:00 +27°C° 0 mm 3 mps 711 mmHg 39%
    22:00 +26°C° 0 mm 4 mps 711 mmHg 40%
    23:00 +25°C° 0 mm 4 mps 711 mmHg 41%

    Day after tomorrow, 25 September, Tuesday

    Time Temperature Precipitation Wind Pressure Humidity
    00:00 +23°C° 0 mm 4 mps 711 mmHg 43%
    01:00 +22°C° 0 mm 4 mps 710 mmHg 44%
    02:00 +22°C° 0 mm 4 mps 710 mmHg 46%
    03:00 +21°C° 0 mm 4 mps 710 mmHg 47%
    04:00 +21°C° 0 mm 3 mps 710 mmHg 49%
    05:00 +20°C° 0 mm 3 mps 710 mmHg 51%
    06:00 +20°C° 0 mm 3 mps 710 mmHg 52%
    07:00 +21°C° 0 mm 4 mps 710 mmHg 53%
    08:00 +23°C° 0 mm 4 mps 711 mmHg 53%
    09:00 +25°C° 0 mm 4 mps 711 mmHg 54%
    10:00 +26°C° 0 mm 4 mps 711 mmHg 50%
    11:00 +28°C° 0 mm 4 mps 711 mmHg 46%
    12:00 +29°C° 0 mm 4 mps 711 mmHg 43%
    13:00 +30°C° 0 mm 4 mps 710 mmHg 40%
    14:00 +30°C° 0 mm 4 mps 710 mmHg 38%
    15:00 +31°C° 0 mm 3 mps 709 mmHg 36%
    16:00 +30°C° 0 mm 4 mps 709 mmHg 41%
    17:00 +28°C° 0 mm 5 mps 709 mmHg 47%
    18:00 +27°C° 0 mm 6 mps 709 mmHg 52%
    19:00 +26°C° 0 mm 7 mps 710 mmHg 58%
    20:00 +23°C° 0 mm 7 mps 710 mmHg 63%
    21:00 +22°C° 0 mm 7 mps 711 mmHg 69%
    22:00 +21°C° 0 mm 6 mps 711 mmHg 70%
    23:00 +21°C° 0 mm 6 mps 711 mmHg 71%

    26 September, Wednesday

    Time Temperature Precipitation Wind Pressure Humidity
    00:00 +21°C° 0 mm 5 mps 711 mmHg 72%
    01:00 +20°C° 0 mm 5 mps 711 mmHg 73%
    02:00 +20°C° 0 mm 4 mps 711 mmHg 74%
    03:00 +20°C° 0 mm 4 mps 711 mmHg 75%
    04:00 +19°C° 0 mm 4 mps 711 mmHg 76%
    05:00 +19°C° 0 mm 4 mps 711 mmHg 77%
    06:00 +19°C° 0 mm 4 mps 711 mmHg 78%
    07:00 +20°C° 0 mm 4 mps 712 mmHg 73%
    08:00 +21°C° 0 mm 4 mps 712 mmHg 68%
    09:00 +22°C° 0 mm 5 mps 712 mmHg 63%
    10:00 +23°C° 0 mm 4 mps 712 mmHg 58%
    11:00 +26°C° 0 mm 4 mps 712 mmHg 53%
    12:00 +27°C° 0 mm 4 mps 712 mmHg 47%
    13:00 +28°C° 0 mm 4 mps 712 mmHg 45%
    14:00 +28°C° 0 mm 4 mps 712 mmHg 43%
    15:00 +29°C° 0 mm 4 mps 711 mmHg 40%
    16:00 +28°C° 0 mm 5 mps 712 mmHg 43%
    17:00 +27°C° 0 mm 5 mps 712 mmHg 46%
    18:00 +26°C° 0 mm 5 mps 712 mmHg 49%
    19:00 +25°C° 0.1 mm 5 mps 712 mmHg 54%
    20:00 +23°C° 0.1 mm 6 mps 713 mmHg 60%
    21:00 +22°C° 0.1 mm 6 mps 713 mmHg 65%
    22:00 +21°C° 0.1 mm 5 mps 713 mmHg 68%
    23:00 +21°C° 0.1 mm 4 mps 713 mmHg 71%

    27 September, Thursday

    Time Temperature Precipitation Wind Pressure Humidity
    00:00 +20°C° 0.1 mm 3 mps 713 mmHg 73%
    01:00 +20°C° 0 mm 3 mps 713 mmHg 75%
    02:00 +19°C° 0 mm 2 mps 713 mmHg 77%
    03:00 +19°C° 0 mm 2 mps 713 mmHg 79%
    04:00 +19°C° 0 mm 2 mps 713 mmHg 80%
    05:00 +19°C° 0 mm 2 mps 713 mmHg 81%
    06:00 +18°C° 0 mm 3 mps 713 mmHg 82%
    07:00 +20°C° 0 mm 3 mps 713 mmHg 76%
    08:00 +21°C° 0 mm 3 mps 713 mmHg 70%
    09:00 +22°C° 0 mm 3 mps 713 mmHg 64%
    10:00 +24°C° 0 mm 3 mps 713 mmHg 59%
    11:00 +26°C° 0 mm 3 mps 713 mmHg 53%
    12:00 +27°C° 0 mm 4 mps 713 mmHg 48%
    13:00 +27°C° 0.1 mm 3 mps 712 mmHg 46%
    14:00 +28°C° 0.1 mm 3 mps 712 mmHg 44%
    15:00 +28°C° 0.1 mm 3 mps 711 mmHg 43%
    16:00 +28°C° 0 mm 3 mps 711 mmHg 45%
    17:00 +27°C° 0 mm 3 mps 711 mmHg 47%
    18:00 +26°C° 0 mm 3 mps 711 mmHg 50%
    19:00 +25°C° 0.2 mm 3 mps 711 mmHg 54%
    20:00 +23°C° 0.2 mm 4 mps 711 mmHg 59%
    21:00 +22°C° 0.2 mm 4 mps 712 mmHg 63%
    22:00 +22°C° 0.3 mm 4 mps 711 mmHg 67%
    23:00 +21°C° 0.3 mm 3 mps 711 mmHg 70%

    28 September, Friday

    Time Temperature Precipitation Wind Pressure Humidity
    00:00 +20°C° 0.3 mm 3 mps 711 mmHg 74%
    01:00 +20°C° 0.1 mm 2 mps 711 mmHg 75%
    02:00 +19°C° 0.1 mm 2 mps 710 mmHg 77%
    03:00 +19°C° 0.1 mm 2 mps 710 mmHg 79%
    04:00 +20°C° 0 mm 1 mps 710 mmHg 80%
    05:00 +19°C° 0 mm 1 mps 710 mmHg 81%
    06:00 +19°C° 0 mm 1 mps 709 mmHg 82%
    07:00 +20°C° 0.1 mm 1 mps 710 mmHg 75%
    08:00 +22°C° 0.1 mm 1 mps 710 mmHg 68%
    09:00 +23°C° 0.1 mm 2 mps 710 mmHg 61%
    10:00 +24°C° 0.1 mm 2 mps 710 mmHg 55%
    11:00 +26°C° 0.1 mm 2 mps 710 mmHg 49%
    12:00 +27°C° 0.1 mm 2 mps 709 mmHg 43%
    13:00 +28°C° 0 mm 1 mps 709 mmHg 41%
    14:00 +28°C° 0 mm 1 mps 708 mmHg 38%
    15:00 +29°C° 0 mm 1 mps 708 mmHg 36%
    16:00 +28°C° 0.1 mm 1 mps 707 mmHg 38%
    17:00 +27°C° 0.1 mm 1 mps 707 mmHg 40%
    18:00 +27°C° 0.1 mm 1 mps 707 mmHg 42%
    19:00 +26°C° 0.3 mm 1 mps 707 mmHg 44%
    20:00 +25°C° 0.3 mm 1 mps 707 mmHg 47%
    21:00 +23°C° 0.3 mm 0 mps 707 mmHg 49%
    22:00 +24°C° 0.2 mm 1 mps 707 mmHg 51%
    23:00 +24°C° 0.2 mm 1 mps 707 mmHg 53%
    Show more